Flight Information

DEPARTURE
SACRAMENTO, CA
Elevation:
26
Runways:
17R/35L - 8598x150 - CONC-G
17L/35R - 8605x150 - CONC-G
Active PE Departure:
17L - 17R
Current PE ATIS:
P
Altimeter:
30.31
Remarks:
V F R DEPARTURES CONTACT CLEARANCE DELIVERY, ADVISE ON COURSE HEADING, ALTITUDE, AND IF FLIGHT FOLLOWING IS REQUESTED.
ATIS:
126.75 916-874-0679
Clearance Delivery:
121.1
Ground:
121.7
Tower:
CAPITOL TOWER 125.7
DESTINATION
,
Elevation:
TPA:
1000 (est.)


6847.7 NM69° True-16° Var53° HDG

Flight Plan:
(click to file on line)

1. Type
2. Aircraft Identification
3. Aircraft Type / Special Equipment
4. True Airspeed
kts
5. Departure Airport
(ICAO code)
6. Arriving Airport
(ICAO code)
7. Cruising Altitude
ft
8. Alternate Airport
(ICAO code)
9. Route of Flight
10. Remarks


00:00:00 Departure ATIS: Destination ATIS:

Clearance Limit:
Route:
Altitude: Expect in minutes
Frequency:
Transponder: (7500 Hijack / 7600 Lost Comms / 7700 Emergency)


KSMF 282153Z 22004KT 10SM BKN250 14/07 A3029 RMK AO2 SLP257 T01440067
Time: 2022-01-28T21:53:00Z
1643407314
Winds: 220 @ 4 kts
Visibility: 10.0 sm
Clouds (AGL): BKN 25000
Temperature: 14.4 C
Dew Point: 6.7 C
Pressure: 30.28937 in Hgbr


Notes:

Data extracted from FAA Digital Chart Supplement. Effective: 0901Z Thursday, DEC 2, 2021 to 0901Z Thursday, JAN 27, 2022
Current ATIS data is provided courtisy of PilotEdge.